Stations météo

Publicité
Poitiers, France (7335): Température de l'air & dewpoint: 13.09.2020 18:00:00 - 19.09.2020 18:00:00 (CEST)Poitiers, France (7335): Température de l'air 5cm: 13.09.2020 18:00:00 - 19.09.2020 18:00:00 (CEST)Poitiers, France (7335): Température de l'air -20cm & Température de l'air -100cm: 13.09.2020 18:00:00 - 19.09.2020 18:00:00 (CEST)Poitiers, France (7335): Vitesse du vent & gusts: 13.09.2020 18:00:00 - 19.09.2020 18:00:00 (CEST)Poitiers, France (7335): Direction du vent: 13.09.2020 18:00:00 - 19.09.2020 18:00:00 (CEST)Poitiers, France (7335): reduced air pressure: 13.09.2020 18:00:00 - 19.09.2020 18:00:00 (CEST)Poitiers, France (7335): visibility: 13.09.2020 18:00:00 - 19.09.2020 18:00:00 (CEST)Poitiers, France (7335): Ensoleillement: 13.09.2020 18:00:00 - 19.09.2020 18:00:00 (CEST)Poitiers, France (7335): Quantités de précipitations: 13.09.2020 18:00:00 - 19.09.2020 18:00:00 (CEST)
Date & Time tt [°C] td [°C] tt 5cm [°C] tt -20cm [°C] tt -100cm [°C] ff [km/h] ff [knt] fx [km/h] fx [knt] dd ppp [hPa] vv [km] sd [min] rr [mm]
19.09.2020 18:00:00 - - - - - - - - - - - - - -
19.09.2020 17:00:00 25,0 15,3 24,4 22,2 19,6 6 3 28 15 SSW 1010,9 60 0 0,0
19.09.2020 16:00:00 26,4 14,2 28,0 22,1 19,5 15 8 48 26 SW 1010,5 46 35 0,0
19.09.2020 15:00:00 27,8 14,8 30,0 21,9 19,5 18 10 36 19 WSW 1010,6 24 46 0,0
19.09.2020 14:00:00 27,3 15,6 30,5 21,7 19,5 21 11 36 20 S 1011,3 19 57 0,0
19.09.2020 13:00:00 25,1 18,1 27,8 21,7 19,6 17 9 32 17 S 1011,8 17 58 0,0
19.09.2020 12:00:00 23,5 18,6 25,9 21,7 19,6 22 12 29 16 S 1011,9 17 60 0,0
19.09.2020 11:00:00 21,6 19,2 22,6 21,6 19,5 16 9 24 13 S 1011,8 17 49 0,0
19.09.2020 10:00:00 20,9 18,7 19,7 21,7 19,5 9 5 19 10 SE 1011,9 13 51 0,0
19.09.2020 09:00:00 19,1 18,6 18,8 21,8 19,5 8 4 16 9 E 1011,8 7 0 0,0
19.09.2020 08:00:00 18,9 18,6 18,8 21,9 19,5 9 5 19 10 ENE 1011,9 6 0 0,0
19.09.2020 07:00:00 18,8 18,6 18,7 21,9 19,5 10 5 20 11 NE 1011,9 5 0 0,2
19.09.2020 06:00:00 18,9 18,7 18,6 22,0 19,5 10 5 22 12 ENE 1012,0 6 0 0,0
19.09.2020 05:00:00 18,9 18,7 18,7 22,1 19,5 11 6 19 10 NE 1012,1 8 0 0,0
19.09.2020 04:00:00 19,0 18,8 18,9 22,2 19,5 11 6 18 10 NE 1012,5 6 0 0,8
19.09.2020 03:00:00 19,1 18,8 18,8 22,3 19,5 6 4 10 5 WNW 1013,0 4,1 0 1,6
19.09.2020 02:00:00 19,1 18,8 18,8 22,4 19,5 8 5 16 8 NE 1013,6 7 0 2,2
19.09.2020 01:00:00 19,0 18,5 18,6 22,5 19,5 9 5 14 7 NNE 1014,0 8 0 1,7
19.09.2020 00:00:00 19,4 18,2 18,7 22,5 19,5 7 4 13 7 N 1014,4 6 0 1,8
18.09.2020 23:00:00 19,9 18,4 18,7 22,5 19,5 8 4 21 11 NNW 1014,3 9 0 0,4
18.09.2020 22:00:00 19,9 17,7 18,7 22,5 19,5 13 7 18 10 NNW 1014,1 9 0 2,0
18.09.2020 21:00:00 22,3 16,8 18,9 22,5 19,5 4 2 27 15 W 1014,1 3,9 0 0,6
18.09.2020 20:00:00 25,3 15,3 22,0 22,5 19,5 16 9 24 13 W 1013,0 33 0 0,0
18.09.2020 19:00:00 26,4 15,1 26,1 22,4 19,5 12 7 31 17 WSW 1012,4 36 0 0,0
18.09.2020 18:00:00 27,7 15,0 27,9 22,2 19,5 21 12 33 18 SW 1012,3 40 0 0,0
18.09.2020 17:00:00 29,6 14,6 30,6 22,0 19,5 13 7 30 16 SSW 1012,0 48 6 0,0
18.09.2020 16:00:00 30,3 14,0 33,0 21,8 19,5 13 7 23 13 SSE 1011,9 20 14 0,0
18.09.2020 15:00:00 30,4 14,1 35,1 21,6 19,4 10 5 25 13 SE 1012,0 32 41 0,0
18.09.2020 14:00:00 29,6 14,2 33,9 21,4 19,4 11 6 25 13 SSW 1012,2 19 46 0,0
18.09.2020 13:00:00 28,4 14,2 34,2 21,4 19,5 12 7 21 12 SE 1012,6 58 53 0,0
18.09.2020 12:00:00 26,3 14,4 27,4 21,3 19,5 10 5 19 10 E 1013,0 20 55 0,0
18.09.2020 11:00:00 23,5 14,5 24,6 21,4 19,5 9 5 22 12 E 1013,4 32 56 0,0
18.09.2020 10:00:00 20,9 14,1 20,0 21,5 19,4 11 6 21 12 ENE 1013,4 34 58 0,0
18.09.2020 09:00:00 19,1 13,5 17,3 21,6 19,5 10 5 21 11 ENE 1013,4 38 57 0,0
18.09.2020 08:00:00 17,7 12,8 16,4 21,7 19,4 9 5 19 11 ENE 1013,4 30 0 0,0
18.09.2020 07:00:00 17,8 12,5 16,4 21,8 19,4 10 5 17 9 ENE 1013,3 40 0 0,0
18.09.2020 06:00:00 18,1 12,1 17,2 21,9 19,4 10 6 20 11 ENE 1013,8 38 0 0,0
18.09.2020 05:00:00 19,2 12,5 17,7 22,0 19,4 14 8 23 12 NE 1014,0 39 0 0,0
18.09.2020 04:00:00 19,9 12,4 19,0 22,1 19,4 11 6 31 17 NE 1014,4 45 0 0,0
18.09.2020 03:00:00 20,8 12,5 19,8 22,2 19,4 15 8 27 14 NE 1015,0 47 0 0,0
18.09.2020 02:00:00 21,3 12,4 20,4 22,3 19,4 14 8 29 16 NE 1015,4 45 0 0,0
18.09.2020 01:00:00 22,3 12,5 21,4 22,3 19,4 16 9 31 17 NE 1015,7 44 0 0,0
18.09.2020 00:00:00 23,2 12,5 22,4 22,4 19,4 17 9 33 18 NE 1016,0 43 0 0,0
17.09.2020 23:00:00 24,0 12,0 20,7 22,4 19,4 17 9 36 19 NE 1015,8 47 0 0,0
17.09.2020 22:00:00 25,3 12,2 24,3 22,4 19,4 20 11 31 17 NE 1015,9 47 0 0,0
17.09.2020 21:00:00 26,5 11,8 25,2 22,4 19,4 14 8 29 16 NE 1015,5 50 0 0,0
17.09.2020 20:00:00 28,4 12,7 27,5 22,3 19,4 18 10 40 21 NE 1015,0 50 43 0,0
17.09.2020 19:00:00 30,0 12,9 30,0 22,2 19,4 20 11 43 23 ENE 1014,9 32 60 0,0
17.09.2020 18:00:00 31,0 12,8 33,7 22,1 19,4 21 12 45 24 ENE 1015,1 44 60 0,0
17.09.2020 17:00:00 31,2 13,5 35,4 21,9 19,3 23 12 44 24 ENE 1015,3 20 60 0,0
17.09.2020 16:00:00 31,7 13,0 37,2 21,7 19,3 21 12 45 25 ENE 1015,9 25 60 0,0
17.09.2020 15:00:00 30,7 13,0 35,9 21,6 19,3 21 11 46 25 E 1016,7 20 60 0,0
17.09.2020 14:00:00 30,6 12,9 34,8 21,4 19,3 22 12 44 24 ENE 1017,3 23 60 0,0
17.09.2020 13:00:00 29,2 13,0 32,3 21,3 19,3 16 8 35 19 ENE 1017,8 25 60 0,0
17.09.2020 12:00:00 26,7 13,8 29,5 21,3 19,3 20 11 32 18 ENE 1018,4 26 60 0,0
17.09.2020 11:00:00 24,6 14,4 25,5 21,4 19,3 19 10 29 16 ENE 1018,8 28 60 0,0
17.09.2020 10:00:00 21,9 14,8 20,4 21,5 19,3 11 6 23 12 ENE 1018,9 30 60 0,0
17.09.2020 09:00:00 19,1 15,4 17,1 21,6 19,3 11 6 19 10 NNE 1019,2 19 60 0,0
17.09.2020 08:00:00 17,7 15,7 15,9 21,7 19,3 11 6 18 10 NE 1019,1 16 0 0,0
17.09.2020 07:00:00 17,3 15,5 14,2 21,9 19,3 12 6 18 10 NNE 1018,9 15 0 0,0
17.09.2020 06:00:00 17,2 14,5 14,3 22,0 19,3 5 3 7 4 N 1018,7 20 0 0,0
17.09.2020 05:00:00 17,3 14,0 14,6 22,1 19,3 5 3 11 6 NNW 1018,9 24 0 0,0
17.09.2020 04:00:00 17,7 13,8 15,1 22,3 19,3 5 3 9 5 NNW 1018,9 27 0 0,0
17.09.2020 03:00:00 18,7 14,2 16,3 22,3 19,3 8 4 14 8 N 1019,2 28 0 0,0
17.09.2020 02:00:00 20,2 14,6 17,4 22,4 19,3 4 2 18 10 N 1019,2 30 0 0,0
17.09.2020 01:00:00 20,7 14,8 18,5 22,5 19,2 12 6 16 8 NNE 1019,3 31 0 0,0
17.09.2020 00:00:00 21,9 14,8 19,3 22,6 19,2 10 5 13 7 N 1019,1 34 0 0,0
16.09.2020 23:00:00 22,2 14,8 20,2 22,6 19,2 11 6 15 8 NNE 1019,1 34 0 0,0
16.09.2020 22:00:00 23,9 14,6 20,9 22,6 19,2 8 5 11 6 NNW 1018,9 36 0 0,0
16.09.2020 21:00:00 25,6 14,4 22,2 22,6 19,3 7 4 14 7 N 1018,5 43 0 0,0
16.09.2020 20:00:00 27,9 14,5 26,9 22,5 19,3 10 6 21 11 N 1017,9 53 45 0,0
16.09.2020 19:00:00 30,0 14,5 31,5 22,3 19,2 11 6 22 12 N 1017,5 41 60 0,0
16.09.2020 18:00:00 30,7 13,0 36,5 22,1 19,2 8 4 22 12 NE 1017,4 53 60 0,0
16.09.2020 17:00:00 31,0 13,3 38,8 21,9 19,2 8 4 22 12 ENE 1017,7 20 60 0,0
16.09.2020 16:00:00 30,6 13,8 39,7 21,6 19,2 9 5 23 13 NNW 1018,2 36 60 0,0
16.09.2020 15:00:00 30,2 13,0 38,4 21,4 19,2 9 5 28 15 N 1018,9 37 60 0,0
16.09.2020 14:00:00 29,5 12,0 36,8 21,3 19,2 12 7 24 13 NNW 1019,4 38 60 0,0
16.09.2020 13:00:00 27,9 14,5 34,3 21,1 19,2 11 6 21 11 NNW 1019,9 19 60 0,0
16.09.2020 12:00:00 25,7 14,5 30,5 21,1 19,2 6 3 16 8 NNW 1020,2 20 60 0,0
16.09.2020 11:00:00 23,4 15,2 25,4 21,1 19,2 5 3 11 6 NW 1020,6 19 60 0,0
16.09.2020 10:00:00 20,7 15,7 19,2 21,2 19,2 7 4 11 6 N 1020,6 20 60 0,0
16.09.2020 09:00:00 17,3 16,2 14,7 21,4 19,2 4 2 8 4 WNW 1020,6 13 60 0,0
16.09.2020 08:00:00 16,2 15,6 13,0 21,5 19,2 4 2 6 4 NW 1020,2 18 0 0,0
16.09.2020 07:00:00 15,5 14,9 13,2 21,6 19,2 3 2 5 3 WNW 1020,0 18 0 0,0
16.09.2020 06:00:00 16,1 15,1 13,7 21,7 19,2 3 2 6 4 WNW 1019,8 19 0 0,0
16.09.2020 05:00:00 16,3 15,5 14,1 21,9 19,2 4 2 6 3 W 1020,1 17 0 0,0
16.09.2020 04:00:00 17,2 16,2 15,2 22,0 19,2 3 2 6 4 WSW 1020,1 19 0 0,0
16.09.2020 03:00:00 18,1 16,8 16,2 22,1 19,2 3 2 7 4 SW 1020,1 20 0 0,0
16.09.2020 02:00:00 19,7 16,3 16,5 22,2 19,2 5 3 9 5 WNW 1019,9 34 0 0,0
16.09.2020 01:00:00 19,7 17,1 16,8 22,3 19,2 4 2 10 5 WSW 1019,9 30 0 0,0
16.09.2020 00:00:00 21,5 16,7 19,4 22,3 19,1 6 3 14 8 WSW 1020,0 37 0 0,0
15.09.2020 23:00:00 22,6 17,5 21,9 22,3 19,2 9 5 14 8 WSW 1019,6 38 0 0,0
15.09.2020 22:00:00 23,0 17,5 21,5 22,3 19,1 10 6 16 8 SW 1019,5 37 0 0,0
15.09.2020 21:00:00 24,3 17,1 23,3 22,2 19,1 6 3 16 8 W 1019,1 38 0 0,0
15.09.2020 20:00:00 25,5 16,9 25,2 22,1 19,1 11 6 23 12 W 1018,6 43 0 0,0
15.09.2020 19:00:00 26,6 18,5 27,1 21,9 19,2 16 9 31 17 W 1018,1 41 0 0,0
15.09.2020 18:00:00 29,2 17,1 30,5 21,7 19,1 21 12 45 25 WSW 1017,7 35 47 0,0
15.09.2020 17:00:00 31,7 14,8 36,7 21,4 19,1 21 11 34 18 SW 1017,3 23 60 0,0
15.09.2020 16:00:00 32,1 14,3 38,9 21,2 19,1 18 10 31 17 SW 1017,6 20 60 0,0
15.09.2020 15:00:00 31,6 14,3 38,7 21,0 19,1 9 5 39 21 SW 1017,9 22 60 0,0
15.09.2020 14:00:00 30,6 14,2 36,7 20,8 19,1 16 9 30 16 SW 1018,3 21 60 0,0
15.09.2020 13:00:00 29,0 14,0 34,4 20,7 19,1 18 10 32 18 SSW 1018,8 19 60 0,0
15.09.2020 12:00:00 27,5 14,5 29,7 20,6 19,1 17 9 34 18 S 1018,9 19 60 0,0
15.09.2020 11:00:00 25,1 13,6 26,6 20,7 19,1 25 13 37 20 S 1019,2 20 60 0,0
15.09.2020 10:00:00 23,2 12,8 21,6 20,8 19,1 18 10 27 15 S 1019,1 25 60 0,0
15.09.2020 09:00:00 20,2 12,7 17,1 20,9 19,1 11 6 17 9 SSE 1019,2 25 57 0,0
15.09.2020 08:00:00 17,9 12,1 15,6 21,0 19,1 10 5 16 9 SSE 1018,9 31 1 0,0
15.09.2020 07:00:00 18,1 11,9 15,7 21,1 19,1 8 5 16 9 SSE 1018,5 38 0 0,0
15.09.2020 06:00:00 18,8 11,8 16,8 21,2 19,1 11 6 16 9 SSE 1018,5 35 0 0,0
15.09.2020 05:00:00 20,4 11,9 17,5 21,3 19,1 11 6 17 9 S 1018,3 38 0 0,0
15.09.2020 04:00:00 21,4 12,0 18,6 21,4 19,1 12 7 18 10 S 1018,4 41 0 0,0
15.09.2020 03:00:00 21,7 12,0 19,7 21,5 19,1 11 6 23 12 S 1018,7 42 0 0,0
15.09.2020 02:00:00 21,8 12,4 19,5 21,6 19,1 11 6 17 9 SSE 1018,6 50 0 0,0
15.09.2020 01:00:00 23,0 12,6 17,8 21,7 19,1 12 6 19 10 SSE 1018,5 52 0 0,0
15.09.2020 00:00:00 20,6 12,6 17,7 21,7 19,1 6 3 9 5 S 1018,5 46 0 0,0
14.09.2020 23:00:00 25,0 12,2 20,5 21,8 19,1 6 3 13 7 SE 1018,3 48 0 0,0
14.09.2020 22:00:00 23,5 11,9 20,7 21,7 19,1 9 5 19 10 SSW 1018,3 50 0 0,0
14.09.2020 21:00:00 27,1 11,2 21,9 21,7 19,1 4 2 10 5 S 1017,6 50 0 0,0
14.09.2020 20:00:00 30,2 11,2 27,3 21,5 19,1 9 5 23 12 S 1017,3 55 49 0,0
14.09.2020 19:00:00 33,6 10,9 34,5 21,3 19,1 17 9 33 18 S 1017,0 25 60 0,0
14.09.2020 18:00:00 34,5 11,6 37,4 21,1 19,1 23 12 37 20 S 1017,1 17 60 0,0
14.09.2020 17:00:00 35,1 11,5 39,8 20,8 19,1 25 14 35 19 S 1017,2 19 60 0,0
14.09.2020 16:00:00 34,6 11,7 40,7 20,6 19,1 24 13 40 22 S 1017,7 17 60 0,0
14.09.2020 15:00:00 34,6 11,7 40,2 20,3 19,1 18 10 36 19 S 1018,3 18 60 0,0
14.09.2020 14:00:00 33,3 13,9 39,5 20,1 19,1 22 12 37 20 S 1018,9 18 60 0,0
14.09.2020 13:00:00 31,5 13,7 36,0 20,0 19,1 18 10 34 18 SSE 1019,5 19 60 0,0
14.09.2020 12:00:00 29,9 13,6 32,2 19,9 19,1 19 10 32 17 S 1020,1 23 60 0,0
14.09.2020 11:00:00 26,8 13,5 25,6 20,0 19,1 18 10 26 14 SSE 1020,4 30 60 0,0
14.09.2020 10:00:00 21,9 12,7 19,9 20,1 19,1 11 6 19 10 SSE 1020,8 33 60 0,0
14.09.2020 09:00:00 18,0 11,8 12,2 20,2 19,1 5 3 15 8 SSE 1020,8 36 60 0,0
14.09.2020 08:00:00 14,9 10,5 10,8 20,4 19,1 7 4 12 6 ESE 1020,7 44 2 0,0
14.09.2020 07:00:00 14,6 10,4 10,8 20,5 19,1 5 3 7 4 E 1020,4 20 0 0,0
14.09.2020 06:00:00 14,0 9,8 11,1 20,6 19,1 3 2 5 3 SE 1020,5 52 0 0,0
14.09.2020 05:00:00 16,1 9,5 11,6 20,8 19,1 5 3 11 6 ESE 1020,6 58 0 0,0
14.09.2020 04:00:00 16,5 9,4 12,2 20,9 19,1 6 3 11 6 ESE 1020,8 57 0 0,0
14.09.2020 03:00:00 18,4 9,5 14,3 21,0 19,1 5 3 11 6 ESE 1021,0 59 0 0,0
14.09.2020 02:00:00 18,8 9,0 14,9 21,1 19,0 2 1 12 6 E 1021,1 55 0 0,0
14.09.2020 01:00:00 20,6 9,2 17,8 21,2 19,1 7 4 15 8 ENE 1021,3 60 0 0,0
14.09.2020 00:00:00 20,6 9,2 17,6 21,2 19,0 8 4 14 7 ENE 1021,5 60 0 0,0
13.09.2020 23:00:00 21,7 9,2 17,9 21,3 19,0 6 4 11 6 NE 1021,4 58 0 0,0
13.09.2020 22:00:00 22,9 8,9 20,0 21,3 19,1 8 5 13 7 NE 1021,4 60 0 0,0
13.09.2020 21:00:00 24,6 8,9 22,3 21,2 19,1 9 5 16 8 ENE 1021,0 60 0 0,0
13.09.2020 20:00:00 27,1 9,0 25,5 21,1 19,1 10 5 16 9 NE 1020,8 55 51 0,0
13.09.2020 19:00:00 29,9 8,9 31,9 20,9 19,0 7 4 22 12 ENE 1020,8 47 60 0,0
13.09.2020 18:00:00 30,6 8,3 35,7 20,7 19,0 7 4 23 12 E 1020,9 50 60 0,0

tt = Température de l'air
td = dewpoint
tt 5cm = Température de l'air 5cm
tt -20cm = Température de l'air -20cm
tt -100cm = Température de l'air -100cm
ff = Vitesse du vent
fx = gusts
dd = Direction du vent
ppp = reduced air pressure
vv = visibility
sd = Ensoleillement
rr = Quantités de précipitations

stations d'obs. à proximité